Tracking 18840 objects as of 20-November-2017
HD Live streaming from Space Station
objects crossing your sky now

FLOCK 3P 2

Track FLOCK 3P 2 now!
10-day predictions
FLOCK 3P 2 is classified as:


NORAD ID: 41966
Int'l Code: 2017-008U
Perigee: 496.5 km
Apogee: 508.4 km
Inclination: 97.5 °
Period: 94.5 minutes
Semi major axis: 6873 km
RCS: Unknown
Launch date: February 15, 2017
Source: United States (US)
Launch site: SRIHARIKOTA (SRI)
aabbcc
Your satellite tracking list
Your tracking list is empty




NASA's NSSDC Master Catalog

Two Line Element Set (TLE):
1 41966U 17008U   17323.76700204  .00005895  00000-0  24983-3 0  9990
2 41966  97.4783  24.5992 0008640  17.3951 342.7580 15.23494348 42054
Source of the keplerian elements: AFSPC